METEOR 2-7 DEB, 36875

Orbit data source: Space-Track

METEOR 2-7 DEB, 36875 is space debris in LEO originally from a launch on Thu, 14 May 1981 UTC launched from the Plesetsk Missile And Space Complex (PKMTR). Debris objects in space refer to the collection of defunct objects orbiting the Earth. Examples of debris include non-operational satellites, rocket bodies, and fragments generated from explosions, collisions, or faulty payload assembly.

Loading next visibility...
METEOR 2-7 DEB details
Identifier
36875, 1981-043N
Orbit
LEO
Last TLE update8 months ago
Origin
Flag of CISKVR (CIS)
ManufacturerUnknown
MissionSpacecraft
Bus & MotorUnknown
MassUnknown
Launch date (UTC)
1981-05-14 (44 years ago)
Launch vehicleUnknown
Launch site
Plesetsk Missile And Space Complex (PKMTR)
Object type
Payload
Rocket body
Debris
Shape & HBRUnknown
Radar Cross SectionSmall (<0.1 m²)

Expand to show TLE details & history

TLE from 8 months ago
0 METEOR 2-7 DEB
1 36875U 81043N   24131.76546284  .00075839  00000-0  88281-2 0  9999
2 36875  81.2364 147.0032 0005462 117.9200 242.2566 14.84868314 63664
Epoch: 2024-05-10T18:22Z
Definitive object data (Epoch: 2024-05-10T18:22:15.989Z)
Latitude0.00003°
Longitude2.39532°
Altitude618.78 km
Speed7.549 km/s
True Right ascension09h 48m 00s
True Declination0° 00' 00"
Sunlit
Object was in daylight at TLE epoch
Visualization TLE readout
Latitude-76.50636°
Longitude63.28036°
Altitude450.779 km
Speed7.638 km/s
Apparent Right ascension02h 21m 03s
Apparent Declination-72° 47' 50"
Sunlit
Object is in full shadow
Visualization observer readout
Local Sidereal Time14:11:27
Azimuth181.307° SSW
Elevation-57.098°
Doppler factor1
Orbital elements
Apogee altitude614.892 km
Perigee altitude607.257 km
Semi-major axis6,989.211 km
Eccentricity0.0005462
Inclination81.2364°
RAAN147.0032°
Arg. of periapsis117.92°
True anomaly242.20122°
Mean anomaly242.2566°
Eccentric anomaly242.22891°
Mean motion3.7145 °/min
BSTAR0.0088281
Orbital period96.92 mins
Loading maneuver chart data...
Loading historical data...
Loading historical data...
Loading historical data...
Loading historical data...
Loading historical data...
Loading historical data...
Loading historical data...

METEOR 2-7 DEB Visibility forecast

Observer location: undefined°, undefined

Span
Click to sort rows by Start time (UTC) header in descending order
Start Az.
Max El. time (UTC)
Max El. Az.
Max El.
End time (UTC)
End Az.
4 mins2024-12-26 16:51:33.116Z132.341° SE2024-12-26 16:53:33.116Z87.983° E18.304°2024-12-26 16:55:33.116Z46.957° ENE
4 mins2024-12-27 04:08:33.116Z27.862° NE2024-12-27 04:09:33.116Z60.013° ENE29.709°2024-12-27 04:12:33.116Z143.913° SSE
|